Location: Wildcat Hills Observatory
(41.6350°N, 103.6812°W)
Time: 15:13:36
(UTC-07:00)

ERS-1 Rocket - Pass Details

Date: 23 June 2018
Orbit: 753 x 758 km, 98.5° (Epoch: 16 November)

Event Time Altitude Azimuth Distance (km) Brightness Sun altitude
Exits shadow 22:26:48 17° 186° (S) 1,822 4.5 -16.2°
Maximum altitude 22:30:30 55° 259° (W) 911 3.5 -16.6°
Drops below altitude 10° 22:35:28 10° 338° (NNW) 2,296 6.7 -17.2°
Sets 22:37:49 0° 342° (NNW) 3,225 7.7 -17.4°
